EA5SW-14 Weather Reports


time (UTC)temp
C
wind
direction
speed
KPH
gust
KPH
rain 1hr
cm
rain 24hr
cm
rain mn
cm
humidity
%
barometer
mb
20260507114230 18 65 4.8 11.3 0.00 0.00 0.00 56 1006.2
20260507113226 18 85 6.4 12.9 0.00 0.00 0.00 56 1006.4
20260507112222 18 70 4.8 9.7 0.00 0.00 0.00 56 1006.5
20260507111218 17 83 6.4 11.3 0.00 0.00 0.00 59 1006.6
20260507110314 18 83 6.4 12.9 0.00 0.00 0.00 58 1006.7
20260507105310 17 82 6.4 11.3 0.00 0.00 0.00 60 1006.9
20260507104305 17 55 4.8 11.3 0.00 0.00 0.00 62 1007.0
20260507103301 17 68 3.2 6.4 0.00 0.00 0.00 61 1007.3
20260507102257 16 44 3.2 6.4 0.00 0.00 0.00 63 1007.4
20260507101253 16 83 4.8 9.7 0.00 0.00 0.00 64 1007.4
20260507100249 16 37 3.2 9.7 0.00 0.00 0.00 65 1007.5
20260507095306 16 90 6.4 9.7 0.00 0.00 0.00 65 1007.5
20260507094240 16 55 4.8 9.7 0.00 0.00 0.00 64 1007.4
20260507093235 16 99 6.4 12.9 0.00 0.00 0.00 64 1007.3
20260507092251 16 68 3.2 6.4 0.00 0.00 0.00 64 1007.4
20260507091226 16 68 4.8 12.9 0.00 0.00 0.00 65 1007.3
20260507090222 16 90 6.4 12.9 0.00 0.00 0.00 64 1007.2
20260507085218 16 52 3.2 9.7 0.00 0.00 0.00 66 1007.3
20260507084314 15 68 4.8 11.3 0.00 0.00 0.00 67 1007.3
20260507083330 15 90 6.4 11.3 0.00 0.00 0.00 67 1007.2
20260507082307 15 90 4.8 11.3 0.00 0.00 0.00 70 1007.3
20260507081301 13 135 6.4 11.3 0.00 0.00 0.00 74 1007.2
20260507080257 13 39 4.8 6.4 0.00 0.00 0.00 79 1007.2
20260507075253 12 58 4.8 6.4 0.00 0.00 0.00 79 1007.1
20260507074249 12 37 4.8 9.7 0.00 0.00 0.00 81 1007.2
20260507073245 12 53 6.4 12.9 0.00 0.00 0.00 81 1007.1
20260507072241 12 30 3.2 9.7 0.00 0.00 0.00 82 1007.2
20260507071257 11 49 3.2 6.4 0.00 0.00 0.00 83 1007.1
20260507070232 11 86 1.6 3.2 0.00 0.00 0.00 82 1007.1
20260507065227 11 68 3.2 6.4 0.00 0.00 0.00 84 1007.2
20260507064223 10 84 3.2 6.4 0.00 0.00 0.00 86 1006.7
20260507063219 10 45 4.8 9.7 0.00 0.00 0.00 87 1006.5
20260507062315 10 30 3.2 6.4 0.00 0.00 0.00 89 1006.3
20260507061310 10 34 3.2 6.4 0.00 0.00 0.00 90 1006.3
20260507060326 10 37 3.2 6.4 0.00 0.00 0.00 90 1006.2
20260507055305 10 23 3.2 3.2 0.00 0.00 0.00 89 1006.2
20260507054317 9 0.0 0.0 0.00 0.00 0.00 90 1006.2
20260507053312 9 0.0 0.0 0.00 0.00 0.00 90 1006.2
20260507052248 10 23 3.2 6.4 0.00 0.00 0.00 89 1006.2
20260507051244 10 86 1.6 3.2 0.00 0.00 0.00 89 1006.2
20260507050300 9 42 3.2 6.4 0.00 0.00 0.00 88 1006.1
20260507045235 10 64 3.2 6.4 0.00 0.00 0.00 89 1006.0
20260507044230 10 49 1.6 6.4 0.00 0.00 0.00 90 1006.1
20260507043246 9 45 3.2 6.4 0.00 0.00 0.00 90 1006.0
20260507042222 10 28 3.2 6.4 0.00 0.00 0.00 91 1006.0
20260507041218 10 23 3.2 6.4 0.00 0.00 0.00 91 1005.9
20260507040334 10 23 3.2 3.2 0.00 0.00 0.00 91 1006.0
20260507035310 10 38 3.2 6.4 0.00 0.00 0.00 91 1005.8
20260507034305 10 30 4.8 6.4 0.00 0.00 0.00 91 1005.9
20260507033301 10 68 6.4 6.4 0.00 0.00 0.00 91 1005.9
20260507032257 10 51 4.8 6.4 0.00 0.00 0.00 91 1006.2
20260507031253 10 23 1.6 3.2 0.00 0.00 0.00 91 1006.2
20260507030248 10 23 4.8 6.4 0.00 0.00 0.00 90 1006.2
20260507025244 10 53 3.2 6.4 0.00 0.00 0.00 90 1006.2
20260507024240 10 60 6.4 11.3 0.00 0.00 0.00 90 1006.1
20260507023236 10 61 6.4 11.3 0.00 0.00 0.00 89 1006.4
20260507022231 10 51 6.4 12.9 0.00 0.00 0.00 89 1006.3
20260507021227 10 30 4.8 11.3 0.00 0.00 0.00 88 1006.5
20260507020223 11 45 4.8 6.4 0.00 0.00 0.00 88 1006.6
20260507015219 11 32 4.8 9.7 0.00 0.00 0.00 88 1006.7
20260507014335 11 15 4.8 9.7 0.00 0.00 0.00 87 1006.7
20260507013310 11 5 4.8 9.7 0.00 0.00 0.00 87 1006.7
20260507012307 11 6 3.2 6.4 0.00 0.00 0.00 87 1006.9
20260507011322 11 30 4.8 6.4 0.00 0.00 0.00 87 1006.8
20260507010318 11 30 4.8 6.4 0.00 0.00 0.00 87 1006.8
20260507005314 11 23 4.8 6.4 0.00 0.00 0.00 86 1006.9
20260507004250 11 41 4.8 9.7 0.00 0.00 0.00 86 1007.1
20260507003245 11 45 6.4 11.3 0.00 0.00 0.00 86 1006.9
20260507002301 11 30 6.4 12.9 0.00 0.00 0.00 86 1007.1
20260507001237 11 38 6.4 11.3 0.00 0.00 0.00 86 1006.7
20260507000234 11 68 6.4 12.9 0.00 0.00 0.00 86 1006.8
20260506235259 11 51 4.8 9.7 0.00 0.00 0.00 86 1007.1
20260506234334 11 23 6.4 9.7 0.00 0.00 0.00 85 1007.1
20260506233250 11 34 6.4 12.9 0.00 0.00 0.00 85 1007.1
20260506232246 12 37 6.4 11.3 0.00 0.00 0.00 84 1007.1
20260506231241 12 69 4.8 11.3 0.00 0.00 0.00 84 1007.1
20260506230237 12 37 4.8 9.7 0.00 0.00 0.00 84 1007.2
20260506225233 12 35 6.4 9.7 0.00 0.00 0.00 84 1007.2
20260506224229 12 15 6.4 11.3 0.00 0.00 0.00 84 1007.2
20260506223224 12 33 4.8 9.7 0.00 0.00 0.00 84 1007.1
20260506222220 12 90 6.4 11.3 0.00 0.00 0.00 84 1007.2
20260506221216 12 61 6.4 11.3 0.00 0.00 0.00 84 1007.1
20260506220312 12 28 4.8 12.9 0.00 0.00 0.00 83 1007.2
20260506215307 12 52 6.4 12.9 0.00 0.00 0.00 83 1007.1
20260506214302 12 90 4.8 11.3 0.00 0.00 0.00 83 1007.1
20260506213258 12 72 4.8 6.4 0.00 0.00 0.00 82 1006.9
20260506212254 12 53 8.0 12.9 0.00 0.00 0.00 82 1006.8
20260506211310 12 76 4.8 12.9 0.00 0.00 0.00 82 1006.8
20260506210305 12 66 4.8 12.9 0.00 0.00 0.00 81 1006.6
20260506205301 12 107 6.4 12.9 0.00 0.00 0.00 81 1006.5
20260506204237 12 8 4.8 9.7 0.00 0.00 0.00 81 1006.1
20260506203233 13 54 4.8 9.7 0.00 0.00 0.00 80 1006.0
20260506202259 13 23 4.8 6.4 0.00 0.00 0.00 79 1005.9
20260506201254 13 45 4.8 11.3 0.00 0.00 0.00 78 1005.8
20260506200250 13 74 6.4 12.9 0.00 0.00 0.00 77 1005.7
20260506195246 13 90 4.8 6.4 0.00 0.00 0.00 76 1005.5
20260506194241 14 59 4.8 12.9 0.00 0.00 0.00 76 1005.5
20260506193237 14 58 6.4 11.3 0.00 0.00 0.00 73 1005.2
20260506192233 15 104 4.8 9.7 0.00 0.00 0.00 70 1005.2
20260506191228 15 81 4.8 6.4 0.00 0.00 0.00 68 1005.0
20260506190224 15 90 4.8 6.4 0.00 0.00 0.00 66 1004.9
20260506185219 16 58 4.8 6.4 0.00 0.00 0.00 64 1005.0
20260506184215 16 45 3.2 6.4 0.00 0.00 0.00 65 1004.8
20260506183311 16 90 6.4 12.9 0.00 0.00 0.00 67 1004.7
20260506182307 16 72 4.8 6.4 0.00 0.00 0.00 69 1004.7
20260506181303 16 75 4.8 9.7 0.00 0.00 0.00 69 1004.6
20260506180318 16 63 6.4 17.7 0.00 0.00 0.00 67 1004.7
20260506175254 17 102 6.4 14.5 0.00 0.00 0.00 65 1004.6
20260506174250 17 59 6.4 14.5 0.00 0.00 0.00 65 1004.5
20260506173306 17 58 6.4 9.7 0.00 0.00 0.00 63 1004.5
20260506172241 18 79 4.8 9.7 0.00 0.00 0.00 61 1004.5
20260506171237 18 34 6.4 9.7 0.00 0.00 0.00 59 1004.4
20260506170233 18 35 8.0 14.5 0.00 0.00 0.00 58 1004.5
20260506165228 18 74 6.4 14.5 0.00 0.00 0.00 57 1004.5
20260506164224 19 59 8.0 11.3 0.00 0.00 0.00 56 1004.5
20260506163220 18 90 9.7 14.5 0.00 0.00 0.00 58 1004.4
20260506162236 20 72 8.0 14.5 0.00 0.00 0.00 55 1004.3
20260506161312 21 33 6.4 12.9 0.00 0.00 0.00 50 1004.3
20260506160327 22 285 3.2 3.2 0.00 0.00 0.00 32 1004.1
20260506155306 22 3 4.8 6.4 0.00 0.00 0.00 32 1004.2
20260506154259 22 240 1.6 3.2 0.00 0.00 0.00 34 1004.2
20260506153255 22 203 0.0 3.2 0.00 0.00 0.00 32 1004.3
20260506152251 22 155 4.8 9.7 0.00 0.00 0.00 32 1004.2
20260506151246 22 270 3.2 9.7 0.00 0.00 0.00 33 1004.3
20260506150242 22 326 4.8 6.4 0.00 0.00 0.00 32 1004.2
20260506145238 22 277 4.8 6.4 0.00 0.00 0.00 33 1004.6
20260506144234 22 288 3.2 6.4 0.00 0.00 0.00 32 1004.5
20260506143229 22 308 3.2 6.4 0.00 0.00 0.00 30 1004.7
20260506142225 22 203 4.8 6.4 0.00 0.00 0.00 30 1004.7
20260506141221 22 293 6.4 11.3 0.00 0.00 0.00 31 1004.9
20260506140217 21 51 3.2 6.4 0.00 0.00 0.00 32 1005.0
20260506135312 21 262 1.6 6.4 0.00 0.00 0.00 32 1005.1
20260506134308 21 217 6.4 11.3 0.00 0.00 0.00 35 1005.2
20260506133304 21 195 3.2 6.4 0.00 0.00 0.00 34 1005.3
20260506132300 22 180 4.8 6.4 0.00 0.00 0.00 34 1005.4
20260506131255 22 256 4.8 6.4 0.00 0.00 0.00 37 1005.5
20260506130251 21 227 3.2 11.3 0.00 0.00 0.00 39 1005.6
20260506125247 21 238 4.8 12.9 0.00 0.00 0.00 40 1005.6
20260506124303 20 258 4.8 6.4 0.00 0.00 0.00 43 1005.7
20260506123239 21 315 6.4 9.7 0.00 0.00 0.00 40 1005.6
20260506122234 21 237 1.6 6.4 0.00 0.00 0.00 42 1005.8
20260506121230 20 307 3.2 9.7 0.00 0.00 0.00 43 1005.8
20260506120226 20 274 3.2 6.4 0.00 0.00 0.00 42 1006.0
20260506115222 20 289 3.2 9.7 0.00 0.00 0.00 43 1006.2